Regional Weather Roundup
Issued by NWS Grand Forks, ND

Home | Current Version | Previous Version | Text Only | Print | Product List | Glossary Off
Versions: 1 2 3 4 5 6 7 8 9 10 11 12 13 14 15 16 17 18 19 20 21 22 23 24 25 26 27 28 29 30 31 32 33 34 35 36 37 38 39 40 41 42 43 44 45 46 47 48 49 50

000
ASUS43 KFGF 241031
RWRFGF
PRAIRIE TO PINES  WEATHER ROUNDUP
NATIONAL WEATHER SERVICE EASTERN NORTH DAKOTA/GRAND FORKS ND
500 AM CDT TUE APR 24 2018

 **SATELLITE DATA USED TO AUGMENT SKY COVER AT AUTOMATED STATIONS**
 *****  WEATHER ACROSS EASTERN NORTH DAKOTA  *****

CITY           SKY/WX    TMP DP  RH WIND       PRES   REMARKS
GRAND FORKS    CLOUDY    41  35  79 N13       30.31R
GRAND FRKS AFB CLOUDY    42  32  67 N9        30.32R
GRAND FRKS NWS   N/A     41  35  79 N5        30.30R
DEVILS LAKE    FAIR      38  31  76 N10       30.36R
FARGO          LGT RAIN  44  40  85 N17       30.26R
WAHPETON ARPT  CLOUDY    46  36  66 N16G22    30.22R
$$

 ***** WEATHER ACROSS CENTRAL AND WESTERN NORTH DAKOTA  *****

CITY           SKY/WX    TMP DP  RH WIND       PRES   REMARKS
BISMARCK       CLOUDY    40  35  83 N6        30.36S
MINOT          FAIR      33  24  69 NW10      30.39R WCI  25
JAMESTOWN      LGT RAIN  41  35  79 N13       30.31R
MINOT AFB      FAIR      29  23  78 NW9       30.39R WCI  20
GARRISON         N/A     35  28  75 N9        30.39R
WILLISTON      FAIR      27  23  85 CALM      30.45R
DICKINSON      MOCLDY    36  29  75 N8        30.38R
HETTINGER      CLOUDY    33  31  92 N13       30.37S FOG     WCI  24
$$

 *****  OTHER AIRPORT OBSERVATIONS IN OUR AREA  *****

CITY           SKY/WX    TMP DP  RH WIND       PRES   REMARKS
WALHALLA       FAIR      32  32 100 NW6       30.35S
GRAFTON AIRPOR FAIR      39  34  81 N12       30.35R
VALLEY CITY AR LGT RAIN  41  41 100 N13G18    30.32R
CANDO          FAIR      30  30 100 N7        30.38S WCI  23
CAVALIER APRT    N/A     37  32  81 NW8       30.35R
GWINNER          N/A     45  39  81 N18G25    30.27R
SHEYENNE NWR     N/A     47  36  65 N12       29.95S
ROLLA          FAIR      30  28  93 NW9       30.37S WCI  22
 ***** THE ABOVE OBSERVATIONS ARE NON NWS ARE NOT QUALITY
       CONTROLLED AND MAY MIS-REPORT RAIN FOR SNOW...
$$

  *****  WEATHER ACROSS NORTHERN MINNESOTA  *****

CITY           SKY/WX    TMP DP  RH WIND       PRES   REMARKS
FLAG ISLAND    FAIR      36  27  69 N9        30.27S
WARROAD        FAIR      37  30  75 NW5       30.30R
ROSEAU         FAIR      39  32  75 N7        30.31R
HALLOCK        FAIR      37  32  81 N6        30.33R
THF RVR FALLS  CLOUDY    44  32  62 N14       30.29R
BAUDETTE       MOCLDY    39  31  72 N10       30.25R
WASKISH        CLOUDY    43  30  61 N10       30.24R
CROOKSTON      MOCLDY    43  36  75 N8        30.31R
STEPHEN NDAWN    N/A     39  32  75 N10         N/A
GREENBUSH NDAW   N/A     39  34  81 N7          N/A
$$
  *****  WEATHER ACROSS CENTRAL AND WEST MINNESOTA  *****

CITY           SKY/WX    TMP DP  RH WIND       PRES   REMARKS
FOSSTON        MOCLDY    41  32  70 N12       30.27R
BEMIDJI        CLOUDY    42  30  60 N12       30.22R
PARK RAPIDS    CLOUDY    43  32  65 N6        30.17S
ELBOW LAKE     CLOUDY    44  36  72 N3        30.19R
WADENA         CLOUDY    41  32  70 N8        30.17S
DETROIT LAKES  FAIR      43  36  75 NW9       30.24R
MOORHEAD       LGT RAIN  43  37  81 N20       30.27R
FERGUS FALLS   CLOUDY    46  36  66 N8        30.18R
MORRIS MN      FAIR      43  37  81 NW6       30.16S
STAPLES        FAIR      39  30  70 CALM      30.16F
$$
  *****  WEATHER ELSEWHERE ACROSS MINNESOTA  *****

CITY           SKY/WX    TMP DP  RH WIND       PRES   REMARKS
DULUTH         FAIR      42  28  57 N5        30.14S
INTRNTL FALLS  CLOUDY    39  30  70 N9        30.21R
ELY            FAIR      28  25  86 CALM      30.16S
CLOQUET        FAIR      34  27  75 NW5       30.15R
WHEATON        FAIR      46  39  76 NW12      30.21R
BRAINERD       FAIR      40  28  62 CALM      30.16S
HIBBING        FAIR      30  26  85 CALM      30.16R
ALEXANDRIA     CLOUDY    47  33  58 N7        30.17R
SAINT CLOUD    FAIR      40  35  83 CALM      30.12F
MINNEAPOLIS    FAIR      46  40  79 CALM      30.12S
$$

  *****  WEATHER ACROSS SOUTH DAKOTA  *****

CITY           SKY/WX    TMP DP  RH WIND       PRES   REMARKS
SIOUX FALLS    CLOUDY    45  39  79 N3        30.13S
BROOKINGS      CLOUDY    47  41  80 CALM      30.14S
WATERTOWN      CLOUDY    47  41  80 N6        30.16S
HURON          CLOUDY    51  44  77 W5        30.14R
SISSETON         N/A     48  40  73 NW10      30.20R
ABERDEEN       CLOUDY    47  42  83 N15       30.24R
MITCHELL       CLOUDY    51  43  74 SE3       30.13F
PIERRE         CLOUDY    49  46  90 NE5       30.09R
MOBRIDGE       RAIN      41  37  86 N30G39    30.22R FOG
RAPID CITY     LGT SNOW  34  32  92 NW29G38   30.37R FOG     WCI  20
$$

  *****  SOME WEATHER IN NEARBY STATES *****

CITY           SKY/WX    TMP DP  RH WIND       PRES   REMARKS
GLASGOW MT     FAIR      35  24  64 CALM      30.44S
GREAT FALLS MT FAIR      33  26  75 S14       30.46S WCI  23
CHEYENNE WY    LGT SNOW  30  28  92 MISG      30.31R FOG
SCOTTSBLUFF NE CLOUDY    37  33  85 NW16      30.35R
OMAHA NE       FAIR      43  37  79 N7        30.11F
DES MOINES IA  FAIR      49  34  56 CALM      30.11F
DAVENPORT IA   FAIR      46  32  58 NE8       30.09S
CHICAGO IL     CLOUDY    49  34  56 N7        30.05F
EAU CLAIRE WI  FAIR      37  33  85 E3        30.11R
LA CROSSE WI   FAIR      41  33  73 SE3       30.11S
$$

  *****  SOME NATIONAL WEATHER *****

CITY           SKY/WX    TMP DP  RH WIND       PRES   REMARKS
LA GUARDIA NY  FAIR      47  42  83 VRB5      30.40S
RALEIGH NC     LGT RAIN  56  55  97 E9        30.06F FOG
ATLANTA GA     DRZL/FOG  59  59 100 W7        29.85R VSB 1
NEW ORLEANS LA FAIR      60  58  92 W5        29.98S
OKLAHOMA CITY  FAIR      53  47  79 N3        30.06R
ALBUQUERQUE NM FAIR      52  23  32 SE10      30.09R
SALT LAKE CITY FAIR      46  36  68 NW8       30.23R
LOS ANGELES CA FAIR      54  51  90 CALM      30.00S FOG
BOISE ID       FAIR      48  37  65 SE13      30.30R
SEATTLE WA     FAIR      50  36  58 N12       30.21F
$$

*** WEATHER ACROSS MANITOBA...SASKATCHEWAN AND ONTARIO ***
                ***ONTARIO***

CITY           SKY/WX    TMP DP  RH WIND       PRES   REMARKS
GERALDTON      PTCLDY    30  27  86 W3        30.11S
THUNDER BAY    PTCLDY    32  27  80 W5        30.16S
SIOUX LOOKOUT  PTCLDY    23  23 100 VRB2      30.17S
TORONTO        MOCLDY    45  30  57 SE3       30.17S
BIG TROUT LK   FLURRIES  23  18  80 N8G17     30.16  WCI  14
PICKLE LAKE    NOT AVBL
DRYDEN         CLEAR     32  27  80 SW5       30.20R
KENORA         PTCLDY    32  25  74 N8        30.24R WCI  25
$$
                *** MANITOBA***

CITY           SKY/WX    TMP DP  RH WIND       PRES   REMARKS
BRANDON        CLEAR     28  25  86 NW6       30.39R WCI  22
DAUPHIN        CLEAR     25  23  93 W3        30.41R
ISLAND LAKE    CLOUDY    21  18  86 N16       30.31  WCI   7
PILOT MOUND      N/A     30  25  80 NW5         N/A
THE PAS        CLEAR     23  19  86 S2        30.39S
THOMPSON       PTCLDY    10   9  92 CALM      30.35S
WINNIPEG       PTCLDY    25  23  93 NW6       30.35R WCI  18
LYNN LAKE      CLEAR     12  10  92 SW8       30.28S WCI   1
CHURCHILL      PTCLDY    10   7  85 W7        30.30F WCI   0
GILLAM         MOCLDY    12   9  85 NW5       30.33R WCI   4
$$
                ***SASKATCHEWAN***

CITY           SKY/WX    TMP DP  RH WIND       PRES   REMARKS
ESTEVAN        CLEAR     25  21  86 W7        30.43R WCI  17
KINDERSLEY     CLEAR     32  27  80 SW6       30.35S
LLOYDMINSTER   MOCLDY    36  28  75 S12       30.26F
PRINCE ALBERT  CLEAR     28  27  93 E3        30.35F
REGINA         CLEAR     28  23  80 SW2       30.41R
YORKTON        CLEAR     30  27  86 W5        30.39R
N. BATTLEFORD  CLEAR     36  23  60 S6        30.33F
LA RONGE       PTCLDY    28  25  86 S6        30.29F WCI  22
SASKATOON      CLEAR     30  25  80 S7        30.37S WCI  23
SWIFT CURRENT  CLEAR     34  23  64 SW13      30.39S WCI  25
$$
NOTE: THESE ARE AUTOMATED STATIONS WITH LIMITED QUALITY CONTROL
      "FAIR" INDICATES FEW OR NO CLOUDS BELOW 12,000 FEET WITH NO
      SIGNIFICANT WEATHER AND/OR OBSTRUCTIONS TO VISIBILITY.
      SKY/WX - SKY CONDITION AND SIGNIFICANT WEATHER.
      TMP - AIR TEMPERATURE.    DP   - DEWPOINT TEMPERATURE.
      RH  - RELATIVE HUMIDITY.  PRES - PRESSURE.
      HX  - HEAT INDEX.         WCI  - WIND CHILL INDEX.
$




USA.gov is the U.S. government's official web portal to all federal, state and local government web resources and services.